Location: Home
(42.5358°N, 72.7383°W)
Time: 09:00:52
(UTC-05:00)

deb Explorer IX - Pass Details

Date: 30 November 2021
Orbit: 544 x 1082 km, 38.8° (Epoch: 19 January)

Event Time Altitude Azimuth Distance (km) Brightness Sun altitude
Rises 17:05:40 0° 265° (W) 2,742 ? -8.6°
Reaches altitude 10° 17:09:11 10° 234° (SW) 1,908 ? -9.2°
Maximum altitude 17:10:53 12° 210° (SSW) 1,813 ? -9.5°
Drops below altitude 10° 17:12:39 10° 187° (S) 1,993 ? -9.8°
Sets 17:16:32 0° 157° (SSE) 3,024 ? -10.5°
